Pond Inlet,

10:11 AM EDT on October 23, 2017 (GMT -0400)
Pond Inlet

Weather History for CYIO - March, 2014

Change the Weather History Date:

Saturday, March 8, 2014

  Actual Average Record
Temperature  
Mean Temperature -31 °F -  
Max Temperature -29 °F -9 °F 5 °F (2013)
Min Temperature -33 °F -20 °F -45 °F (2012)
Degree Days  
Heating Degree Days 96    
Moisture  
Dew Point -39 °F    
Average Humidity 66    
Maximum Humidity 75    
Minimum Humidity 47    
Precipitation  
Precipitation 0.00 in - - ()
Sea Level Pressure  
Sea Level Pressure 29.62 in    
Wind  
Wind Speed 5 mph ()    
Max Wind Speed 8 mph    
Max Gust Speed -    
Visibility 9.4 miles    
Events      
Averages and records for this station are not official NWS values.
T = Trace of Precipitation, MM = Missing Value Source: Averaged Metar Reports

Daily Weather History Graph

Daily Weather History Graph

Search for Another Location

Airport or City:

Trip Planner

Search our weather history database for the weather conditions in past years. The results will help you decide how hot, cold, wet, or windy it might be!

Date:

Astronomy

Mar. 08, 2014 Rise Set
Actual Time 7:13 AM EST 5:33 PM EST
Civil Twilight 6:04 AM EST 6:44 PM EST
Nautical Twilight 4:41 AM EST 8:07 PM EST
Astronomical Twilight 3:02 AM EST 9:49 PM EST
Moon No Moon Rise No Moon Set
Length of Visible Light 12h 40m
Length of Day
10h 20m
First Quarter, 51% of the Moon is Illuminated
Mar 8
First Quarter
Mar 16
Full
Mar 23
Last Quarter
Mar 30
New
Apr 7
First Quarter

Hourly Weather History & Observations

Time (EST) Temp. Windchill Dew Point Humidity Pressure Visibility Wind Dir Wind Speed Gust Speed Precip Events Conditions
12:00 AM -31.0 °F -48.4 °F -38.2 °F 68% 29.62 in 9.0 mi South 5.8 mph - N/A   Clear
12:28 AM -31.0 °F -48.4 °F -36.4 °F 75% 29.62 in 9.0 mi South 5.8 mph - N/A   Clear
12:29 AM -31.0 °F -48.4 °F -36.4 °F 75% 29.62 in 9.0 mi South 5.8 mph - N/A   Clear
12:46 AM -31.0 °F -48.4 °F -38.2 °F 68% 29.62 in 9.0 mi SSE 5.8 mph - N/A   Clear
12:48 AM -31.0 °F -48.4 °F -38.2 °F 68% 29.62 in 9.0 mi SSE 5.8 mph - N/A   Clear
1:00 AM -32 °F - -39 °F 49% 29.62 in 10 mi SSE 5.8 mph - -  
1:00 AM -32.8 °F -50.5 °F -40.0 °F 68% 29.62 in 9.0 mi SSE 5.8 mph - N/A   Clear
1:06 AM -31.0 °F -46.1 °F -38.2 °F 68% 29.62 in 9.0 mi South 4.6 mph - N/A   Clear
1:07 AM -31.0 °F -46.1 °F -38.2 °F 68% 29.62 in 9.0 mi South 4.6 mph - N/A   Clear
1:25 AM -31.0 °F -43.3 °F -38.2 °F 68% 29.63 in 9.0 mi South 3.5 mph - N/A   Clear
1:26 AM -31.0 °F -43.3 °F -38.2 °F 68% 29.63 in 9.0 mi South 3.5 mph - N/A   Clear
1:44 AM -31.0 °F -43.3 °F -38.2 °F 68% 29.63 in 9.0 mi South 3.5 mph - N/A   Clear
1:45 AM -31.0 °F -43.3 °F -38.2 °F 68% 29.63 in 9.0 mi South 3.5 mph - N/A   Clear
2:00 AM -29.2 °F -44.0 °F -34.6 °F 75% 29.63 in 9.0 mi South 4.6 mph - N/A   Clear
2:03 AM -29.2 °F -44.0 °F -36.4 °F 68% 29.63 in 9.0 mi South 4.6 mph - N/A   Clear
2:04 AM -29.2 °F -44.0 °F -36.4 °F 68% 29.62 in 9.0 mi South 4.6 mph - N/A   Clear
2:21 AM -31.0 °F -48.4 °F -38.2 °F 68% 29.62 in 9.0 mi SSE 5.8 mph - N/A   Clear
2:22 AM -31.0 °F -48.4 °F -36.4 °F 75% 29.62 in 9.0 mi SSE 5.8 mph - N/A   Clear
2:40 AM -31.0 °F -46.1 °F -38.2 °F 68% 29.62 in 9.0 mi SSE 4.6 mph - N/A   Clear
2:41 AM -31.0 °F -46.1 °F -38.2 °F 68% 29.62 in 9.0 mi SSE 4.6 mph - N/A   Clear
2:58 AM -31.0 °F -48.4 °F -38.2 °F 68% 29.63 in 9.0 mi SSE 5.8 mph - N/A   Clear
2:59 AM -31.0 °F -48.4 °F -38.2 °F 68% 29.63 in 9.0 mi SSE 5.8 mph - N/A   Clear
3:00 AM -31.0 °F -48.4 °F -40.0 °F 62% 29.63 in 9.0 mi SSE 5.8 mph - N/A   Clear
3:17 AM -31.0 °F -46.1 °F -38.2 °F 68% 29.63 in 9.0 mi South 4.6 mph - N/A   Clear
3:18 AM -31.0 °F -46.1 °F -40.0 °F 62% 29.63 in 9.0 mi South 4.6 mph - N/A   Clear
3:36 AM -31.0 °F -50.3 °F -38.2 °F 68% 29.63 in 9.0 mi SSE 6.9 mph - N/A   Clear
3:37 AM -31.0 °F -50.3 °F -38.2 °F 68% 29.63 in 9.0 mi South 6.9 mph - N/A   Clear
3:54 AM -32.8 °F -50.5 °F -40.0 °F 68% 29.63 in 9.0 mi South 5.8 mph - N/A   Clear
3:56 AM -32.8 °F -50.5 °F -40.0 °F 68% 29.63 in 9.0 mi South 5.8 mph - N/A   Clear
4:00 AM -32 °F - -40 °F 48% 29.63 in 10 mi South 5.8 mph - -  
4:00 AM -32.8 °F -52.4 °F -40.0 °F 68% 29.63 in 9.0 mi South 6.9 mph - N/A   Clear
4:13 AM -32.8 °F -52.4 °F -40.0 °F 68% 29.63 in 9.0 mi South 6.9 mph - N/A   Clear
4:15 AM -32.8 °F -54.1 °F -40.0 °F 68% 29.63 in 9.0 mi South 8.1 mph - N/A   Clear
4:32 AM -31.0 °F -48.4 °F -38.2 °F 68% 29.63 in 9.0 mi South 5.8 mph - N/A   Clear
4:35 AM -31.0 °F -50.3 °F -40.0 °F 62% 29.63 in 9.0 mi South 6.9 mph - N/A   Clear
4:51 AM -31.0 °F -50.3 °F -38.2 °F 68% 29.63 in 9.0 mi SSE 6.9 mph - N/A   Clear
4:53 AM -31.0 °F -48.4 °F -36.4 °F 75% 29.63 in 9.0 mi SSE 5.8 mph - N/A   Clear
5:00 AM -31.0 °F -48.4 °F -38.2 °F 68% 29.63 in 9.0 mi South 5.8 mph - N/A   Clear
5:10 AM -31.0 °F -48.4 °F -40.0 °F 62% 29.63 in 9.0 mi South 5.8 mph - N/A   Clear
5:12 AM -32.8 °F -50.5 °F -40.0 °F 68% 29.63 in 9.0 mi South 5.8 mph - N/A   Clear
5:30 AM -32.8 °F -50.5 °F -40.0 °F 68% 29.64 in 9.0 mi South 5.8 mph - N/A   Clear
5:31 AM -32.8 °F -50.5 °F -40.0 °F 68% 29.64 in 9.0 mi South 5.8 mph - N/A   Clear
5:49 AM -31.0 °F -48.4 °F -38.2 °F 68% 29.64 in 9.0 mi South 5.8 mph - N/A   Clear
5:50 AM -31.0 °F -50.3 °F -38.2 °F 68% 29.64 in 9.0 mi South 6.9 mph - N/A   Clear
6:00 AM -31.0 °F -48.4 °F -38.2 °F 68% 29.64 in 9.0 mi South 5.8 mph - N/A   Clear
6:07 AM -31.0 °F -48.4 °F -40.0 °F 62% 29.64 in 9.0 mi South 5.8 mph - N/A   Clear
6:08 AM -32.8 °F -50.5 °F -40.0 °F 68% 29.64 in 9.0 mi South 5.8 mph - N/A   Clear
6:26 AM -31.0 °F -48.4 °F -40.0 °F 62% 29.64 in 9.0 mi SSE 5.8 mph - N/A   Clear
6:27 AM -32.8 °F -50.5 °F -40.0 °F 68% 29.64 in 9.0 mi South 5.8 mph - N/A   Clear
6:45 AM -32.8 °F -50.5 °F -40.0 °F 68% 29.64 in 9.0 mi South 5.8 mph - N/A   Clear
6:46 AM -32.8 °F -50.5 °F -40.0 °F 68% 29.64 in 9.0 mi South 5.8 mph - N/A   Clear
7:00 AM -32 °F - -39 °F 52% 29.63 in 10 mi South 5.8 mph - -  
7:00 AM -32.8 °F -48.2 °F -38.2 °F 75% 29.63 in 9.0 mi South 4.6 mph - N/A   Clear
7:03 AM -31.0 °F -46.1 °F -38.2 °F 68% 29.63 in 9.0 mi South 4.6 mph - N/A   Clear
7:05 AM -31.0 °F -46.1 °F -38.2 °F 68% 29.63 in 9.0 mi South 4.6 mph - N/A   Clear
7:22 AM -31.0 °F -43.3 °F -38.2 °F 68% 29.64 in 9.0 mi SSW 3.5 mph - N/A   Clear
7:24 AM -31.0 °F -43.3 °F -38.2 °F 68% 29.64 in 9.0 mi SSW 3.5 mph - N/A   Clear
7:42 AM -29.2 °F -41.2 °F -36.4 °F 68% 29.64 in 9.0 mi SSW 3.5 mph - N/A   Clear
7:44 AM -29.2 °F -41.2 °F -38.2 °F 62% 29.64 in 9.0 mi SSW 3.5 mph - N/A   Clear
8:00 AM -32.8 °F -45.3 °F -40.0 °F 68% 29.64 in 9.0 mi South 3.5 mph - N/A   Clear
8:20 AM -32.8 °F -48.2 °F -40.0 °F 68% 29.64 in 9.0 mi South 4.6 mph - N/A   Clear
8:22 AM -32.8 °F -48.2 °F -40.0 °F 68% 29.64 in 9.0 mi South 4.6 mph - N/A   Clear
8:58 AM -31.0 °F -48.4 °F -40.0 °F 62% 29.63 in 9.0 mi South 5.8 mph - N/A   Clear
8:59 AM -32.8 °F -50.5 °F -40.0 °F 68% 29.63 in 9.0 mi South 5.8 mph - N/A   Clear
9:00 AM -32.8 °F -50.5 °F -40.0 °F 68% 29.63 in 9.0 mi South 5.8 mph - N/A   Clear
9:17 AM -32.8 °F -50.5 °F -40.0 °F 68% 29.63 in 9.0 mi South 5.8 mph - N/A   Clear
9:18 AM -32.8 °F -50.5 °F -40.0 °F 68% 29.63 in 9.0 mi South 5.8 mph - N/A   Clear
9:36 AM -32.8 °F -52.4 °F -40.0 °F 68% 29.63 in 9.0 mi South 6.9 mph - N/A   Clear
9:38 AM -32.8 °F -52.4 °F -40.0 °F 68% 29.63 in 9.0 mi South 6.9 mph - N/A   Clear
9:56 AM -31.0 °F -46.1 °F -38.2 °F 68% 29.63 in 9.0 mi South 4.6 mph - N/A   Clear
9:57 AM -31.0 °F -48.4 °F -38.2 °F 68% 29.63 in 9.0 mi South 5.8 mph - N/A   Clear
10:00 AM -31 °F - -38 °F 51% 29.63 in 10 mi South 5.8 mph - -  
10:00 AM -31.0 °F -48.4 °F -38.2 °F 68% 29.63 in 9.0 mi South 5.8 mph - N/A   Clear
10:15 AM -31.0 °F -46.1 °F -38.2 °F 68% 29.63 in 9.0 mi South 4.6 mph - N/A   Clear
10:16 AM -31.0 °F -48.4 °F -38.2 °F 68% 29.63 in 9.0 mi South 5.8 mph - N/A   Clear
10:50 AM -31.0 °F -48.4 °F -38.2 °F 68% 29.62 in 9.0 mi South 5.8 mph - N/A   Clear
11:00 AM -31.0 °F -46.1 °F -38.2 °F 68% 29.62 in 9.0 mi SSW 4.6 mph - N/A   Clear
12:00 PM -29.2 °F -44.0 °F -36.4 °F 68% 29.62 in 9.0 mi SSW 4.6 mph - N/A   Clear
1:00 PM -31 °F - -39 °F 47% 29.62 in 10 mi SSW 4.6 mph - -  
1:00 PM -31.0 °F -46.1 °F -38.2 °F 68% 29.62 in 9.0 mi South 4.6 mph - N/A   Clear
1:13 PM -31.0 °F -46.1 °F -38.2 °F 68% 29.62 in 9.0 mi South 4.6 mph - N/A   Clear
2:00 PM -31.0 °F -48.4 °F -38.2 °F 68% 29.61 in 20.0 mi South 5.8 mph - N/A   Ice Crystals
3:00 PM -29.2 °F -48.1 °F -36.4 °F 68% 29.61 in 20.0 mi SW 6.9 mph - N/A   Ice Crystals
4:00 PM -31 °F - -37 °F 54% 29.61 in 10 mi SSW 5.8 mph - -  
4:00 PM -31.0 °F -46.1 °F -38.2 °F 68% 29.60 in 15.0 mi SSW 4.6 mph - N/A   Partly Cloudy
5:00 PM -31.0 °F -46.1 °F -38.2 °F 68% 29.61 in 15.0 mi SW 4.6 mph - N/A   Scattered Clouds
6:00 PM -31.0 °F -46.1 °F -38.2 °F 68% 29.60 in 9.0 mi South 4.6 mph - N/A   Overcast
7:00 PM -31 °F - -38 °F 53% 29.60 in 10 mi South 5.8 mph - -  
7:00 PM -31.0 °F -48.4 °F -38.2 °F 68% 29.60 in 9.0 mi South 5.8 mph - N/A   Partly Cloudy
8:00 PM -31.0 °F -43.3 °F -38.2 °F 68% 29.59 in 9.0 mi SSW 3.5 mph - N/A   Scattered Clouds
8:36 PM -32.8 °F -45.3 °F -40.0 °F 68% 29.58 in 9.0 mi South 3.5 mph - N/A   Partly Cloudy
8:37 PM -32.8 °F -45.3 °F -40.0 °F 68% 29.58 in 9.0 mi SSW 3.5 mph - N/A   Partly Cloudy
8:55 PM -31.0 °F -43.3 °F -40.0 °F 62% 29.59 in 9.0 mi SW 3.5 mph - N/A   Clear
8:57 PM -31.0 °F -46.1 °F -40.0 °F 62% 29.58 in 9.0 mi SW 4.6 mph - N/A   Clear
9:00 PM -31.0 °F -43.3 °F -38.2 °F 68% 29.58 in 9.0 mi SSW 3.5 mph - N/A   Clear
9:52 PM -31.0 °F -43.3 °F -38.2 °F 68% 29.57 in 9.0 mi SSW 3.5 mph - N/A   Clear
9:54 PM -31.0 °F -43.3 °F -38.2 °F 68% 29.57 in 9.0 mi SSW 3.5 mph - N/A   Clear
10:00 PM -32 °F - -39 °F 49% 29.58 in 10 mi SSW 3.5 mph - -  
10:00 PM -32.8 °F -45.3 °F -40.0 °F 68% 29.58 in 9.0 mi SSW 3.5 mph - N/A   Clear
11:00 PM -32.8 °F -52.4 °F -40.0 °F 68% 29.57 in 9.0 mi South 6.9 mph - N/A   Clear
11:07 PM -32.8 °F -52.4 °F -40.0 °F 68% 29.57 in 9.0 mi South 6.9 mph - N/A   Clear
11:08 PM -32.8 °F -52.4 °F -40.0 °F 68% 29.57 in 9.0 mi South 6.9 mph - N/A   Clear
11:26 PM -32.8 °F -50.5 °F -40.0 °F 68% 29.57 in 9.0 mi South 5.8 mph - N/A   Clear
11:27 PM -32.8 °F -50.5 °F -40.0 °F 68% 29.57 in 9.0 mi South 5.8 mph - N/A   Clear
11:44 PM -31.0 °F -46.1 °F -38.2 °F 68% 29.57 in 9.0 mi South 4.6 mph - N/A   Clear
11:46 PM -31.0 °F -46.1 °F -40.0 °F 62% 29.57 in 9.0 mi South 4.6 mph - N/A   Clear